Satellite Actuals Today Synoptics Week ahead

Actual weather at the Black Mountains Gliding Club.

METARs

Birmingham

2019/03/26 16:20
EGBB 261620Z 33010KT 9999 SCT042 13/03 Q1032

Brize Norton

2019/03/26 15:50
EGVN 261550Z 32008KT 9999 FEW042 13/03 Q1032 BLU NOSIG

Cardiff

2019/03/26 16:20
EGFF 261620Z AUTO 27010KT 9999 NCD 11/05 Q1033

Select station

2019/03/26 16:20
EGCC 261620Z AUTO 29014KT 9999 SCT032 10/02 Q1033 NOSIG

Decode?  - Copy the METAR (from the station code) and paste it into the METARs/TAFs box here.

Webcams
Current Long Mynd West

Airfield webcams

Talgarth Airfield looking EAST
Talgarth Airfield looking NORTH
Talgarth Airfield looking WEST
Bidford
Cambridge
Dunstable
Lasham
Long Mynd
Usk Airfield (South Wales GC)
Nympsfield airfield
Aston Down
Staverton- looking NE.
Oxford
Shenington Airfield, near Banbury - from the clubhouse, looking north
Parham airfield Sussex [Southdown GC]
Lasham airfield Hampshire

General webcams

Abergavenny looking west towards the Blorenge
Abersoch - Llyn peninsula - 2
Alvechurch, North Worcs.
Brecon Beacons National Park Visitor Centre webcam
Llangorse webcam
Newbury
Newtown, Powys
Wye Valley webcam - different views can be selected
Snowdon